Location: *
(2.5500°S, 65.9667°W)
Time: 14:35:48
(UTC+00:00)

SRMSAT - Pass Details

Date: 02 July 2022
Orbit: 848 x 865 km, 20.0° (Epoch: 18 August)

Event Time Altitude Azimuth Distance (km) Brightness Sun altitude
Rises 22:55:24 0° 283° (WNW) 3,423 ? -7.3°
Reaches altitude 10° 22:58:49 10° 301° (WNW) 2,483 ? -8.1°
Maximum altitude 23:02:45 18° 343° (NNW) 1,974 ? -9.0°
Drops below altitude 10° 23:06:41 10° 24° (NNE) 2,473 ? -9.9°
Sets 23:10:05 0° 43° (NE) 3,404 ? -10.7°
